OBJECT G

Satellite information

Favourite Embed

Satellite Type and Status

UNKNOWNDECAYED

Key statistics

Satellite OBJECT G at a glance.

Uptime

443

Days in orbit

Revolutions

≈ 16.4

Per day

Orbit

SSO

Sun Synchronous Orbit

Inclination

97.4

Latest

Satellite identification and parameters

Extended collection of information and parameters for OBJECT G.

Object identification

Identified? True

Debris? False

Object name: OBJECT G

International designator: 2024-039G

Object number (NORAD): 59057

Object ID (CCSDS): 59057

Country: TO BE DETERMINED/UNKNOWN (TBD)

Current information (Y/N): Y

RCS size: SMALL

Orbital parameters

Decay date: May 17, 2025

Period: 87.872 minutes

Inclination: 97.4006 deg

SMA: 6547.29 km

Apoapsis: 175.18 km

Periapsis: 163.13 km

RAAN: 109.1318 deg

Eccentricy: 0.0009203

Argument of periapsis: 217.1858 deg

Mean anomaly: 142.8804 deg

Mean motion: 16.38741284 rev/day

Mean motion (dot): 0.08814262 rev/day2

B* drag term: 0.00081673 1/REarth

Two-line elements (TLE)

Creation date: May 12, 2025, 7:41 p.m.

Reference frame: TEME

Reference center: EARTH

Epoch: May 12, 2025, 5:25 a.m. UTC

TLE line 0: 0 OBJECT G

TLE line 1: 1 59057U 24039G 25132.22606553 .08814262 25991-5 81673-3 0 9996

TLE line 2: 2 59057 97.4006 109.1318 0009203 217.1858 142.8804 16.38741284 67557

Live tracking on map

Satellite OBJECT G has decayed and is no longer in orbit. No tracking available.

In-orbit conjunctions

Satellite OBJECT G has decayed and is no longer in orbit. No conjunctions available.

Associated space launch

Meteor-M satellites are a new generation of Russian meteorological satellites. Hitchhiking Payloads: SITRO-AIS 13-28, Zorkiy-2M-2, Pars 1 (Iran).

OBJECT G was lifted into orbit during the mission ‘Soyuz 2.1b/Fregat-M | Meteor-M No.2-4 & others’, on board a Soyuz 2.1b/Fregat-M space rocket.

The launch took place on Feb. 29, 2024, 5:43 a.m. from Cosmodrome Site 1S.

For more information about the launch, click the button.

Launch to space Soyuz 2.1b/Fregat-M | Meteor-M No.2-4 & others
Soyuz 2.1b/Fregat-M | Meteor-M No.2-4 & others

Agency: Russian Federal Space Agency (ROSCOSMOS)

Status: Launch Successful

Launch date: Feb. 29, 2024, 5:43 a.m. UTC

Rocket: Soyuz 2.1b/Fregat-M

Launch pad: Cosmodrome Site 1S

Location: Vostochny Cosmodrome, Siberia, Russian Federation

...

Latest news about this satellite

There are no fresh news available about this satellite. Check back as we update our databases every day.


Newsletter sign-up

Weekly statistics, charts and insights to help you stay on top of the space industry.